Location: Unspecified
(0.0000°N, 0.0000°E)
Time: 09:25:13
(UTC+00:00)

O/OREOS (USA 219) - Pass Details

Date: 20 May 2021
Orbit: 621 x 646 km, 72.0° (Epoch: 22 May)

Event Time Altitude Azimuth Distance (km) Brightness Sun altitude
Exits shadow 04:34:34 30° 200° (SSW) 1,120 ? -19.2°
Maximum altitude 04:36:44 80° 283° (WNW) 632 ? -18.7°
Drops below altitude 10° 04:41:11 10° 11° (NNE) 1,979 ? -17.7°
Sets 04:43:26 0° 13° (NNE) 2,884 ? -17.1°
